LiveATC.Net - Listen to live air traffic control over the Internet! Contact for advertising information

ICAO: LTBA  IATA: IST   Airport: Ataturk Airport
City: Istanbul
Country: Turkey   Continent: Europe
LTBA METAR Weather: LTBA 252350Z 09006KT 030V150 9999 SCT035 BKN100 17/06 Q1005 NOSIG
LTBA Flight Activity (FlightAware)
LTBA Del/Gnd/Twr/App
Feed Status: DOWN
Last heard on: 2015-11-20 04:04:03 (5 days 20 hours 18 minutes ago)
LTBA Del/Gnd/Twr/App Audio Archives
LTBA Approach120.500
LTBA Approach121.100
LTBA Delivery121.700
LTBA Ground121.800
LTBA Ground/Ramp121.900
LTBA Tower118.100
LTBA Tower121.800


Unauthorized use prohibited. See Terms of Service

Find LiveATC Audio Streams

Airport/ARTCC Code

(e.g., 124.400, 128.75)
Site-wide search

Browse LiveATC Feeds
LiveATC Coverage Map
Top 50 LiveATC Feeds
Bad Weather Areas

Offer a LiveATC Feed
Press Inquiries

LiveATC on iPhone
LiveATC on Android

Windows Phone
Windows 8/10

LiveATC Mobile
(Mobile browser)

ATC Audio Archives
Interesting Recordings

LiveATC Forums

Home Page
Make a Donation
LiveATC Bookstore

Terms of Use
Privacy Policy

ATC/Radar Sites
U.S. ARTCC Freqs
Canadian Air Freqs


FAA Airport Status
Nat'l Airspace Status
Arrival Demand Charts

Server Software By:

Please make a donation to help us keep growing!